sat.trackr.live / text

‹ back to catalog

STARLINK-6171

NORAD 56883 · 2023-083H

PAYLOAD ACTIVE UNKNOWN

§ Identity

Operator
Country
US
Launch date
2023-06-12
Launch site
AFETR
Launch vehicle
Mass (kg)
RCS (m²)

Purposes: comms

External: N2YO · Heavens-Above · Gunter

§ Orbital elements

Epoch: 2026-09-20T20:57:59.421024Z

Period
94.27 min
Inclination
43.0031°
Eccentricity
0.0001196
Mean motion
15.27586351 rev/d
Perigee alt
482.2 km
Apogee alt
483.9 km
Semi-major
6,861.2 km
B*
5.5838e-5
RAAN
62.6890°
Arg perigee
271.6950°
Mean anomaly
88.3765°
Rev number
18,148

§ Raw data

STARLINK-61711 56883U 23083H   26263.87360441  .00001275  00000+0  55838-4 0  99952 56883  43.0031  62.6890 0001196 271.6950  88.3765 15.27586351181483

JSON: /api/v1/satellites/56883 · /tle

For live sub-satellite position, see the globe view (requires WebGL).

§ Visibility from observer

Set your observer location to see the next 7 days of passes ≥ 10°. The values pass through the URL so the page stays shareable.

No JS? Fill the form by hand. The geolocation button needs JavaScript.